Location: Newark
(26.8229°N, 81.7649°W)
Time: 00:53:42
(UTC+00:00)

N. Korean satellite - Pass Details

Date: 29 January 2020
Orbit: 456 x 505 km, 97.2° (Epoch: 21 February)

Event Time Altitude Azimuth Distance (km) Brightness Sun altitude
Rises 10:22:25 0° 31° (NNE) 2,563 10.5 -24.9°
Reaches altitude 10° 10:24:56 10° 49° (NE) 1,687 9.8 -24.4°
Maximum altitude 10:27:36 19° 97° (E) 1,219 9.4 -23.8°
Drops below altitude 10° 10:30:17 10° 144° (SE) 1,696 9.9 -23.2°
Sets 10:32:48 0° 162° (SSE) 2,582 10.6 -22.7°
